• In Hungary
  • List of Countries
  • For 7 days
  • Water Temperature
  • Satellite Maps
  • Weather Map
  • News
  • Weather Widgets
  • user-avatar
    Login

    Hourly Weather Nawoz

    Today, 24 September, Monday

    Time Temperature Precipitation Wind Pressure Humidity
    00:00 +13°C° 0.7 mm 8 mps 734 mmHg 63%
    01:00 +13°C° 0.7 mm 8 mps 733 mmHg 68%
    02:00 +14°C° 0 mm 4 mps 731 mmHg 79%
    03:00 +14°C° 0.5 mm 6 mps 732 mmHg 80%
    04:00 +13°C° 0.5 mm 9 mps 732 mmHg 81%
    05:00 +13°C° 0.5 mm 11 mps 732 mmHg 82%
    06:00 +12°C° 0.1 mm 10 mps 734 mmHg 82%
    07:00 +9°C° 0.1 mm 10 mps 735 mmHg 81%
    08:00 +7°C° 0 mm 10 mps 737 mmHg 81%
    09:00 +7°C° 0.1 mm 10 mps 738 mmHg 79%
    10:00 +7°C° 0.1 mm 10 mps 739 mmHg 77%
    11:00 +8°C° 0.1 mm 9 mps 741 mmHg 75%
    12:00 +8°C° 0.1 mm 10 mps 741 mmHg 72%
    13:00 +8°C° 0.1 mm 10 mps 741 mmHg 69%
    14:00 +10°C° 0 mm 9 mps 742 mmHg 66%
    15:00 +8°C° 0 mm 9 mps 742 mmHg 66%
    16:00 +8°C° 0 mm 9 mps 743 mmHg 66%
    17:00 +7°C° 0 mm 8 mps 743 mmHg 66%
    18:00 +7°C° 0 mm 8 mps 744 mmHg 68%
    19:00 +8°C° 0 mm 7 mps 744 mmHg 71%
    20:00 +7°C° 0 mm 6 mps 745 mmHg 73%
    21:00 +7°C° 0.2 mm 6 mps 745 mmHg 75%
    22:00 +7°C° 0.2 mm 6 mps 745 mmHg 77%
    23:00 +5°C° 0.2 mm 6 mps 746 mmHg 78%

    Tomorrow, 25 September, Tuesday

    Time Temperature Precipitation Wind Pressure Humidity
    00:00 +5°C° 0 mm 6 mps 746 mmHg 78%
    01:00 +5°C° 0 mm 6 mps 747 mmHg 78%
    02:00 +4°C° 0 mm 6 mps 747 mmHg 77%
    03:00 +5°C° 0 mm 5 mps 747 mmHg 78%
    04:00 +5°C° 0 mm 5 mps 748 mmHg 78%
    05:00 +3°C° 0 mm 5 mps 748 mmHg 79%
    06:00 +4°C° 0 mm 6 mps 749 mmHg 77%
    07:00 +4°C° 0 mm 6 mps 750 mmHg 76%
    08:00 +4°C° 0 mm 6 mps 750 mmHg 74%
    09:00 +6°C° 0 mm 7 mps 751 mmHg 68%
    10:00 +8°C° 0 mm 7 mps 751 mmHg 61%
    11:00 +10°C° 0 mm 8 mps 752 mmHg 55%
    12:00 +10°C° 0.3 mm 8 mps 752 mmHg 54%
    13:00 +10°C° 0.3 mm 8 mps 752 mmHg 54%
    14:00 +11°C° 0.3 mm 8 mps 752 mmHg 54%
    15:00 +10°C° 0.2 mm 7 mps 753 mmHg 56%
    16:00 +10°C° 0.2 mm 7 mps 753 mmHg 59%
    17:00 +9°C° 0.2 mm 6 mps 753 mmHg 62%
    18:00 +8°C° 0 mm 5 mps 754 mmHg 64%
    19:00 +7°C° 0 mm 5 mps 754 mmHg 67%
    20:00 +7°C° 0 mm 4 mps 755 mmHg 70%
    21:00 +6°C° 0 mm 4 mps 756 mmHg 71%
    22:00 +5°C° 0 mm 4 mps 756 mmHg 72%
    23:00 +5°C° 0 mm 4 mps 757 mmHg 73%

    Day after tomorrow, 26 September, Wednesday

    Time Temperature Precipitation Wind Pressure Humidity
    00:00 +4°C° 0 mm 3 mps 757 mmHg 76%
    01:00 +4°C° 0 mm 3 mps 757 mmHg 78%
    02:00 +3°C° 0 mm 3 mps 758 mmHg 80%
    03:00 +3°C° 0 mm 3 mps 758 mmHg 81%
    04:00 +3°C° 0 mm 2 mps 758 mmHg 82%
    05:00 +3°C° 0 mm 2 mps 758 mmHg 84%
    06:00 +4°C° 0 mm 2 mps 758 mmHg 81%
    07:00 +5°C° 0 mm 2 mps 759 mmHg 77%
    08:00 +5°C° 0 mm 2 mps 759 mmHg 74%
    09:00 +7°C° 0 mm 2 mps 759 mmHg 65%
    10:00 +9°C° 0 mm 3 mps 759 mmHg 57%
    11:00 +11°C° 0 mm 3 mps 759 mmHg 48%
    12:00 +12°C° 0 mm 3 mps 758 mmHg 47%
    13:00 +12°C° 0 mm 4 mps 758 mmHg 46%
    14:00 +13°C° 0 mm 4 mps 757 mmHg 45%
    15:00 +13°C° 0 mm 4 mps 756 mmHg 48%
    16:00 +13°C° 0 mm 3 mps 756 mmHg 51%
    17:00 +12°C° 0 mm 3 mps 755 mmHg 54%
    18:00 +12°C° 0 mm 3 mps 755 mmHg 56%
    19:00 +11°C° 0 mm 3 mps 755 mmHg 58%
    20:00 +10°C° 0 mm 3 mps 755 mmHg 60%
    21:00 +10°C° 0 mm 3 mps 755 mmHg 61%
    22:00 +10°C° 0 mm 4 mps 754 mmHg 62%
    23:00 +10°C° 0 mm 4 mps 754 mmHg 63%

    27 September, Thursday

    Time Temperature Precipitation Wind Pressure Humidity
    00:00 +9°C° 0 mm 5 mps 753 mmHg 60%
    01:00 +10°C° 0 mm 5 mps 753 mmHg 57%
    02:00 +10°C° 0 mm 6 mps 753 mmHg 53%
    03:00 +10°C° 0 mm 6 mps 752 mmHg 52%
    04:00 +10°C° 0 mm 6 mps 752 mmHg 51%
    05:00 +10°C° 0 mm 6 mps 751 mmHg 49%
    06:00 +10°C° 0 mm 6 mps 751 mmHg 49%
    07:00 +10°C° 0 mm 6 mps 751 mmHg 50%
    08:00 +10°C° 0 mm 7 mps 751 mmHg 50%
    09:00 +12°C° 0 mm 7 mps 751 mmHg 51%
    10:00 +14°C° 0 mm 7 mps 751 mmHg 52%
    11:00 +15°C° 0 mm 7 mps 751 mmHg 52%
    12:00 +17°C° 0 mm 7 mps 751 mmHg 53%
    13:00 +18°C° 0 mm 7 mps 751 mmHg 54%
    14:00 +20°C° 0 mm 7 mps 751 mmHg 55%
    15:00 +20°C° 0 mm 6 mps 750 mmHg 58%
    16:00 +19°C° 0 mm 5 mps 750 mmHg 61%
    17:00 +19°C° 0 mm 4 mps 750 mmHg 64%
    18:00 +18°C° 0 mm 4 mps 750 mmHg 70%
    19:00 +16°C° 0 mm 3 mps 750 mmHg 76%
    20:00 +14°C° 0 mm 3 mps 750 mmHg 82%
    21:00 +13°C° 0 mm 3 mps 750 mmHg 85%
    22:00 +13°C° 0 mm 3 mps 750 mmHg 87%
    23:00 +12°C° 0 mm 3 mps 750 mmHg 89%

    28 September, Friday

    Time Temperature Precipitation Wind Pressure Humidity
    00:00 +12°C° 0 mm 3 mps 749 mmHg 90%
    01:00 +12°C° 0 mm 3 mps 749 mmHg 90%
    02:00 +11°C° 0 mm 3 mps 749 mmHg 91%
    03:00 +11°C° 0 mm 3 mps 748 mmHg 90%
    04:00 +11°C° 0 mm 3 mps 748 mmHg 89%
    05:00 +11°C° 0 mm 4 mps 747 mmHg 88%
    06:00 +11°C° 0 mm 4 mps 747 mmHg 84%
    07:00 +12°C° 0 mm 4 mps 747 mmHg 79%
    08:00 +13°C° 0 mm 5 mps 747 mmHg 75%
    09:00 +15°C° 0 mm 5 mps 747 mmHg 69%
    10:00 +16°C° 0 mm 5 mps 747 mmHg 64%
    11:00 +19°C° 0 mm 5 mps 747 mmHg 59%
    12:00 +20°C° 0 mm 5 mps 746 mmHg 56%
    13:00 +21°C° 0 mm 5 mps 746 mmHg 54%
    14:00 +22°C° 0 mm 5 mps 746 mmHg 52%
    15:00 +21°C° 0 mm 4 mps 746 mmHg 55%
    16:00 +21°C° 0 mm 4 mps 746 mmHg 58%
    17:00 +20°C° 0 mm 3 mps 745 mmHg 61%
    18:00 +18°C° 0 mm 3 mps 746 mmHg 68%
    19:00 +16°C° 0 mm 2 mps 746 mmHg 75%
    20:00 +15°C° 0 mm 2 mps 746 mmHg 82%
    21:00 +14°C° 0 mm 2 mps 746 mmHg 84%
    22:00 +14°C° 0 mm 1 mps 746 mmHg 85%
    23:00 +13°C° 0 mm 1 mps 746 mmHg 86%

    29 September, Saturday

    Time Temperature Precipitation Wind Pressure Humidity
    00:00 +13°C° 0.1 mm 1 mps 746 mmHg 85%
    01:00 +13°C° 0.1 mm 1 mps 746 mmHg 84%
    02:00 +13°C° 0.1 mm 1 mps 745 mmHg 83%
    03:00 +13°C° 0.5 mm 2 mps 745 mmHg 84%
    04:00 +12°C° 0.5 mm 2 mps 745 mmHg 85%
    05:00 +11°C° 0.5 mm 3 mps 745 mmHg 86%
    06:00 +10°C° 0.4 mm 3 mps 746 mmHg 86%
    07:00 +10°C° 0.4 mm 3 mps 746 mmHg 85%
    08:00 +10°C° 0.4 mm 3 mps 746 mmHg 85%
    09:00 +10°C° 0.1 mm 3 mps 747 mmHg 80%
    10:00 +11°C° 0.1 mm 3 mps 747 mmHg 75%
    11:00 +12°C° 0.1 mm 3 mps 748 mmHg 70%
    12:00 +12°C° 0 mm 3 mps 748 mmHg 63%
    13:00 +13°C° 0 mm 4 mps 748 mmHg 57%
    14:00 +14°C° 0 mm 4 mps 748 mmHg 50%
    15:00 +14°C° 0 mm 3 mps 748 mmHg 51%
    16:00 +14°C° 0 mm 3 mps 748 mmHg 52%
    17:00 +13°C° 0 mm 3 mps 748 mmHg 53%
    18:00 +12°C° 0 mm 3 mps 749 mmHg 56%
    19:00 +10°C° 0 mm 2 mps 749 mmHg 60%
    20:00 +9°C° 0 mm 2 mps 749 mmHg 64%
    21:00 +8°C° 0 mm 2 mps 749 mmHg 66%
    22:00 +8°C° 0 mm 2 mps 749 mmHg 69%
    23:00 +7°C° 0 mm 2 mps 750 mmHg 71%
    Show more